{"data":{"norad_id":66403,"epoch":"2026-05-25T05:26:26.537856Z","epoch_age_seconds":59419,"freshness":"FRESH","line1":"1 66403U 25257Z   26145.22669604  .00017071  00000+0  51505-3 0  9997","line2":"2 66403  53.1573 220.6624 0001086  71.0577 289.0543 15.34410633 31464","mean_motion":15.34410633,"eccentricity":0.0001086,"inclination_deg":53.1573,"raan_deg":220.6624,"arg_perigee_deg":71.0577,"mean_anomaly_deg":289.0543,"bstar":0.00051505,"rev_number":3146,"period_min":93.847107744854,"perigee_km":461.92872505484,"apogee_km":463.41454869077,"semimajor_km":6840.8086368728,"source":"CELESTRAK","updated_at":"2026-05-25T13:38:21.205024Z"}}